www.pogodaiklimat.ru

Погода и климат >> Архив погоды >> Австралия >> Richmond Airport


ПОГОДА в Richmond Airport

  • Прогноз погоды в Richmond Airport
  • Монитор погоды в Richmond Airport
  • Климат города

АРХИВ ПОГОДЫ в Richmond Airport

Время (UTC), дата Ветер
(напр.,м/с)
 
Видим.   Явления Облачность Т
(С)
Тd
(С)
f
(%)
Тe
(С)
Тes
(С)
Комфортность P
(гПа)
Po
(гПа)
Тmin
(С)
Tmax
(С)
R
(мм)
R24
(мм)
S
(см)
05 8.08 ЮВ 7 н/о н/о +24.8 -6.5 12 +22 +22 комфорт 1016.1 992.0
06 8.08 ЮВ 6 н/о н/о +25.2 -6.2 12 +23 +23 комфорт 1015.9 991.8
08 8.08 ЮВ 6 н/о н/о +21.6 -8.0 13 +20 +20 1016.3 992.2
09 8.08 ЮВ 5 н/о н/о +17.4 -8.6 16 +17 +17 1016.7 992.6
11 8.08 ЮВ 5 н/о н/о +15.4 -7.4 20 +14 +14 1018.1 993.9
12 8.08 ЮВ 4 н/о н/о +11.1 -8.2 25 +10 +10 1018.4 994.2
14 8.08 ЮВ 5 н/о н/о +12.9 -6.6 25 +11 +11 1018.4 994.2 +25.6
15 8.08 ЮВ 5 н/о н/о +12.3 -6.6 26 +10 +10 1018.4 994.2
17 8.08 В 3 н/о н/о +8.5 -7.2 32 +7 +7 1018.4 994.2
18 8.08 В 2 н/о н/о +6.9 -6.4 38 +5 +5 1018.5 994.3
20 8.08 В 4 н/о н/о +8.1 -6.4 35 +6 +6 1019.1 994.9
21 8.08 В 6 н/о н/о +10.5 -5.1 33 +8 +8 1019.8 995.6
23 8.08 ЮВ 7 н/о н/о +15.3 -4.1 26 +14 +14 1020.8 996.6
00 9.08 ЮВ 7 н/о н/о +17.6 -3.7 23 +17 +17 1021.1 996.9
02 9.08 В 6 н/о н/о +23.2 -4.8 15 +21 +21 комфорт 1019.1 994.9 +6.6
03 9.08 В 5 н/о н/о +24.9 -4.4 14 +23 +23 комфорт 1018.0 993.8
05 9.08 ЮВ 3 н/о н/о +27.0 -3.7 13 +24 +24 комфорт 1015.9 991.8
06 9.08 ЮВ 4 н/о н/о +26.9 -4.9 12 +24 +24 комфорт 1015.6 991.5
08 9.08 ЮВ 5 н/о н/о +23.5 -7.5 12 +21 +21 комфорт 1015.6 991.5
09 9.08 ЮВ 5 н/о н/о +18.7 -9.3 14 +18 +18 1016.0 991.9
11 9.08 ЮВ 5 н/о н/о +14.3 -9.7 18 +13 +13 1017.0 992.9
12 9.08 ЮВ 6 н/о н/о +17.2 -9.6 15 +17 +17 1017.3 993.2
14 9.08 В 5 н/о н/о +13.4 -9.7 19 +12 +12 1017.4 993.3 +27.7
15 9.08 ЮВ 4 н/о н/о +10.5 -9.2 24 +9 +9 1017.2 993.1
17 9.08 В 4 н/о н/о +10.5 -8.7 25 +9 +9 1016.3 992.2
18 9.08 В 3 н/о н/о +9.6 -8.9 26 +8 +8 1016.0 991.9
20 9.08 В 4 н/о н/о +7.2 -8.0 33 +5 +5 1016.6 992.5
21 9.08 В 4 н/о н/о +15.4 -7.1 21 +16 +16 1017.3 993.2
23 9.08 СВ 5 н/о н/о +19.2 +2.6 33 +19 +19 1018.3 994.1
00 10.08 СВ 5 н/о н/о +23.5 -4.0 16 +23 +23 комфорт 1018.4 994.2
02 10.08 В 4 н/о н/о +28.1 -0.1 16 +26 +26 жарко 1016.6 992.5 +7.1
03 10.08 В 3 н/о н/о +29.3 -0.9 14 +26 +26 жарко 1015.6 991.5
05 10.08 СЗ 4 н/о н/о +30.4 -1.1 13 +27 +27 жарко 1013.2 989.2
06 10.08 СВ 3 н/о н/о +30.2 -1.2 13 +27 +27 жарко 1012.5 988.5
08 10.08 СЗ 3 н/о н/о +27.1 -2.7 14 +25 +25 комфорт 1012.3 988.3
09 10.08 З 4 н/о н/о +22.2 -2.5 19 +21 +21 комфорт 1012.7 988.7
11 10.08 ЮВ 4 н/о н/о +18.5 -1.9 25 +18 +18 1013.9 989.8
12 10.08 ЮВ 4 н/о н/о +19.1 -1.4 25 +19 +19 1014.3 990.2
14 10.08 В 5 н/о н/о +16.5 -3.0 26 +16 +16 1014.0 989.9 +31.2
15 10.08 В 3 н/о н/о +14.7 -3.6 28 +14 +14 1014.0 989.9
17 10.08 СВ 4 н/о н/о +13.0 -2.9 33 +12 +12 1013.8 989.7
18 10.08 СВ 3 н/о н/о +12.3 -1.2 39 +11 +11 1013.7 989.6
20 10.08 штиль 0 н/о н/о +9.9 -3.0 40 +10 +10 1014.2 990.1
21 10.08 ЮЗ 1 н/о н/о +17.5 -0.1 30 +19 +19 1015.2 991.1
23 10.08 С 6 н/о н/о +20.6 +6.5 40 +21 +21 комфорт 1016.3 992.2
00 11.08 С 5 н/о н/о +25.0 +6.2 30 +25 +25 комфорт 1016.6 992.5
02 11.08 З 5 н/о н/о +29.0 +7.0 25 +28 +28 жарко 1015.2 991.1 +8.1
03 11.08 СЗ 5 н/о н/о +29.7 +7.0 24 +29 +29 жарко 1014.2 990.1
05 11.08 З 4 н/о н/о +30.8 +6.0 21 +29 +29 жарко 1012.5 988.5
06 11.08 ЮЗ 4 н/о н/о +30.0 +4.6 20 +28 +28 жарко 1012.1 988.1
08 11.08 З 5 н/о н/о +27.5 +4.5 23 +26 +26 жарко 1012.8 988.8
09 11.08 З 4 н/о н/о +23.5 +2.9 26 +23 +23 комфорт 1013.4 989.4
11 11.08 Ю 6 н/о н/о +21.3 -0.6 23 +21 +21 комфорт 1015.3 991.2
12 11.08 Ю 6 н/о н/о +19.9 -0.7 25 +20 +20 1015.7 991.6
14 11.08 Ю 7 н/о н/о +18.4 -0.4 28 +18 +18 1016.3 992.2 +31.4
15 11.08 Ю 6 н/о н/о +17.2 -1.0 29 +16 +16 1016.5 992.4
17 11.08 Ю 4 н/о 5/0
[]
+16.2 -0.9 31 +16 +16 1017.2 993.1
18 11.08 ЮВ 3 н/о н/о +15.1 -1.0 33 +15 +15 1017.9 993.7
20 11.08 Ю 3 н/о н/о +11.3 -1.5 41 +10 +10 1019.1 994.9
21 11.08 Ю 3 н/о н/о +10.8 -1.3 43 +9 +9 1020.1 995.9
23 11.08 Ю 10 н/о н/о +16.8 +0.5 33 +15 +15 1021.2 997.0
00 12.08 ЮВ 9 н/о н/о +19.1 +0.7 29 +18 +18 1021.5 997.3
02 12.08 ЮВ 8 н/о н/о +22.5 +0.4 23 +22 +22 комфорт 1020.5 996.3 +10.5
03 12.08 ЮВ 8 н/о н/о +23.7 +0.1 21 +23 +23 комфорт 1019.5 995.3
05 12.08 Ю 7 н/о н/о +24.9 -0.3 19 +23 +23 комфорт 1018.0 993.8
06 12.08 ЮВ 7 н/о н/о +24.6 -0.5 19 +23 +23 комфорт 1017.8 993.6
08 12.08 Ю 7 н/о н/о +22.1 -1.2 21 +21 +21 комфорт 1018.6 994.4
09 12.08 Ю 5 н/о н/о +19.1 -1.9 24 +19 +19 1019.0 994.8
11 12.08 Ю 7 н/о н/о +16.9 -2.7 26 +16 +16 1020.6 996.4
12 12.08 Ю 5 н/о н/о +14.8 -3.5 28 +14 +14 1021.1 996.9
14 12.08 Ю 5 н/о н/о +11.5 -5.0 31 +10 +10 1021.5 997.3 +25.6
15 12.08 ЮВ 4 н/о н/о +10.8 -5.6 31 +9 +9 1021.1 996.9
17 12.08 Ю 5 н/о н/о +10.9 -5.5 31 +9 +9 1020.7 996.5
18 12.08 ЮВ 6 н/о н/о +10.6 -5.4 32 +8 +8 1020.7 996.5
20 12.08 ЮВ 6 н/о н/о +8.9 -6.1 34 +6 +6 1021.8 997.6
21 12.08 ЮВ 4 н/о н/о +7.2 -6.1 38 +4 +4 1022.6 998.3
23 12.08 ЮВ 7 н/о н/о +14.5 -5.3 25 +13 +13 1023.6 999.3
00 13.08 ЮВ 10 н/о н/о +17.2 -5.9 20 +16 +16 1023.8 999.5
02 13.08 ЮВ 8 н/о н/о +21.3 -5.5 16 +20 +20 1022.4 998.1 +7.1
03 13.08 В 7 н/о н/о +22.3 -5.6 15 +21 +21 комфорт 1021.3 997.1
05 13.08 В 4 н/о н/о +24.4 -4.8 14 +22 +22 комфорт 1019.7 995.5
06 13.08 ЮВ 7 н/о н/о +24.4 -3.9 15 +22 +22 комфорт 1019.4 995.2
08 13.08 ЮВ 7 н/о н/о +21.3 -6.3 15 +20 +20 1019.8 995.6
09 13.08 Ю 5 н/о н/о +16.2 -8.1 18 +16 +16 1020.5 996.3
11 13.08 ЮВ 5 н/о н/о +14.4 -8.9 19 +13 +13 1022.0 997.7
12 13.08 ЮВ 5 н/о н/о +13.1 -9.3 20 +12 +12 1022.1 997.8
14 13.08 ЮВ 6 н/о н/о +12.1 -10.8 19 +10 +10 1022.2 997.9 +25.2
15 13.08 ЮВ 7 н/о н/о +12.9 -9.5 20 +11 +11 1022.1 997.8
17 13.08 В 5 н/о н/о +10.9 -9.4 23 +9 +9 1021.6 997.4
18 13.08 В 4 н/о н/о +9.5 -9.5 25 +7 +7 1021.5 997.3
20 13.08 В 5 н/о н/о +8.6 -8.8 28 +6 +6 1021.8 997.6
21 13.08 В 4 н/о н/о +7.0 -9.8 29 +5 +5 1022.3 998.0
23 13.08 В 4 н/о н/о +15.0 -7.1 21 +14 +14 1022.9 998.6
00 14.08 В 5 н/о н/о +18.9 -7.4 16 +18 +18 1023.0 998.7
02 14.08 В 7 н/о н/о +23.8 -7.3 12 +22 +22 комфорт 1021.1 996.9 +6.6
03 14.08 В 6 н/о н/о +25.0 -8.7 10 +22 +22 комфорт 1019.9 995.7
05 14.08 ЮВ 4 н/о н/о +26.7 -8.8 9 +23 +23 комфорт 1017.8 993.6
06 14.08 ЮВ 6 н/о н/о +26.6 -7.5 10 +24 +24 комфорт 1017.3 993.2
08 14.08 ЮВ 5 н/о н/о +22.9 -8.0 12 +21 +21 комфорт 1018.1 993.9
09 14.08 ЮВ 5 н/о н/о +18.1 -9.8 14 +18 +18 1018.2 994.0
11 14.08 ЮВ 5 н/о н/о +17.2 -8.8 16 +17 +17 1019.3 995.1
12 14.08 В 5 н/о н/о +16.3 -8.8 17 +16 +16 1019.2 995.0
14 14.08 ЮВ 3 н/о н/о +11.9 -8.5 23 +11 +11 1019.0 994.8 +27.8
15 14.08 ЮВ 3 н/о н/о +8.2 -10.1 26 +6 +6 1018.7 994.5
17 14.08 В 3 н/о н/о +8.9 -7.7 30 +7 +7 1018.6 994.4
18 14.08 ЮВ 3 н/о н/о +7.2 -8.4 32 +5 +5 1018.7 994.5
20 14.08 В 2 н/о н/о +7.2 -6.1 38 +6 +6 1019.0 994.8
21 14.08 В 3 н/о н/о +7.0 -5.3 41 +5 +5 1019.4 995.2
23 14.08 СВ 4 н/о н/о +18.4 +6.3 45 +18 +18 1019.8 995.6
00 15.08 СВ 6 н/о н/о +23.1 +6.4 34 +24 +24 комфорт 1020.0 995.8
02 15.08 СВ 5 н/о н/о +26.6 +4.4 24 +26 +26 жарко 1018.5 994.3 +6.2
03 15.08 В 4 н/о н/о +27.4 +2.5 20 +26 +26 жарко 1017.4 993.3

 

Местоположение метеостанции Richmond Airport (Квинсленд, Австралия): широта -20.70 долгота 143.11 высота над уровнем моря 207 м.

В архиве по умолчанию представлена погода в Richmond Airport за последнюю неделю. Архивные данные за месяц целиком и за предыдущие месяцы, начиная с января 2011 года, Вы можете получить, выбрав интересующий диапазон дат из раскрывающегося списка и нажав кнопку "Ввод!".


*Определитесь, кто Вы:
робот инопланетянин человек

Внимание! Время в таблицах - всемирное. Для получения местного времени необходимо прибавить поправку, которая в Richmond Airport равна 10 ч.

Смотрите также архив погоды в соседних городах и на ближайших метеорологических станциях:

Погода в Hughenden Airport (Квинсленд, Австралия) (117 км)
Погода в Julia Creek Airport (Квинсленд, Австралия) (144 км)
Погода в Winton Airport (Квинсленд, Австралия) (186 км)
Погода в Trepell Airport (Квинсленд, Австралия) (263 км)
Погода в Georgetown Airport (Квинсленд, Австралия) (271 км)
Погода в Cloncurry Composite (Квинсленд, Австралия) (272 км)
Погода в Longreach Airport (Квинсленд, Австралия) (327 км)
Погода в Phosphate Hill Airport (Квинсленд, Австралия) (353 км)
Погода в Lake Julius Aws (Квинсленд, Австралия) (358 км)
Погода в Mount Isa (Квинсленд, Австралия) (378 км)

Пояснения к столбцам:

Ветер - указаны скорость ветра в м/с - средняя за 10 мин, порывы в срок и между сроками (в фигурных скобках) и направление, откуда дует ветер: С - северный, СВ - северо-восточный, В - восточный, ЮВ - юго-восточный, Ю - южный, ЮЗ - юго-западный, З - западный, СЗ - северо-западный.
Видимость - горизонтальная дальность видимости в метрах или километрах. При видимости от 1 до 10 км при отсутствии осадков обычно наблюдается дымка, при ухудшении видимости до 1 км и менее - туман. В сухую погоду видимость может ухудшаться дымом, пылью или мглою.
Явления - указаны атмосферные явления, наблюдавшиеся в срок или в последний час перед сроком; фигурными скобками обозначены явления, наблюдавшиеся между сроками (за 1-3 часа до срока); квадратными скобками обозначены град или гололедные отложения с указанием их диаметра в мм.
Облачность - указаны через наклонную черту общая и нижняя облачность в баллах и высота нижней границы облаков в метрах; квадратными скобками обозначены формы облаков: Ci - перистые, Cs - перисто-слоистые, Cc - перисто-кучевые, Ac - высококучевые, As - высокослоистые, Sc - слоисто-кучевые, Ns - слоисто-дождевые, Cu - кучевые, Cb - кучево-дождевые. Подробнее классификацию облаков см. в Атласе облаков (PDF).
T - Температура воздуха - температура, измеренная на высоте 2 м над землей.
Td - Температура точки росы - температура, при понижении до которой содержащийся в воздухе водяной пар достигнет насыщения.
f - Относительная влажность воздуха - влажноcть воздуха, измеренная на высоте 2 м над землей.
Te - Эффективная температура - температура, которую ощущает одетый по сезону человек в тени. Характеристика душности погоды. При расчете учитывается влияние влажности воздуха и скорости ветра на теплоощущения человека.
Tes - Эффективная температура на солнце - температура, которую ощущает человек, с поправкой на солнечный нагрев. Характеристика знойности погоды. Зависит от высоты солнца над горизонтом, облачности и скорости ветра. Ночью, в пасмурную погоду, а также при ветре 12 м/с и более поправка равна нулю.
P - Атмосферное давление - приведенное к уровню моря атмосферное давление.
Po - Атмосферное давление - измеренное на уровне метеостанции атмосферное давление.
Tmin - Минимальная температура - минимум температуры воздуха на высоте 2 м над землей.
Tmax - Максимальная температура - максимум температуры воздуха на высоте 2 м над землей.
R - Количество осадков - Количество выпавших осадков за период времени, мм. При наведении курсора мыши на число - период времени, за который выпало указанное количество осадков.
R24 - Количество осадков - Количество выпавших осадков за 24 часа, мм.
S - Снежный покров - Высота снежного покрова, см. При наведении курсора мыши на число - состояние снежного покрова и степень покрытия местности в баллах.